Location: Unspecified
(0.0000°N, 0.0000°E)
Time: 06:51:13
(UTC+00:00)

RS-6 - Pass Details

Date: 05 October 2022
Orbit: 1636 x 1664 km, 83.0° (Epoch: 04 December)

Event Time Altitude Azimuth Distance (km) Brightness Sun altitude
Rises 05:11:04 0° 207° (SSW) 4,892 ? -9.3°
Reaches altitude 10° 05:14:39 10° 218° (SW) 3,899 ? -8.4°
Maximum altitude 05:22:16 28° 272° (W) 2,728 ? -6.5°
Drops below altitude 10° 05:29:53 10° 327° (NNW) 3,873 ? -4.6°
Sets 05:33:30 0° 339° (NNW) 4,854 ? -3.7°
